Tracking 31027 objects as of 19-Jul-2025
HD Live streaming from Space Station
objects crossing your sky now

CZ-3A R/B

Track CZ-3A R/B now!


NORAD ID: 33464
Int'l Code: 2008-066B
Perigee: 396.6 km
Apogee: 34,769.3 km
Inclination: 25.3 °
Period: 614.9 minutes
Semi major axis: 23953 km
RCS: 14.7347 m2 (large)
Launch date: December 23, 2008
Source: People's Republic of China (PRC)
Launch site: Xichang Space Center, China (XSC)

Note: This is a ROCKET BODY
Your satellite tracking list
ICEYE-X27
Track 1 satellite(s)




NASA's NSSDC Master Catalog

Two Line Element Set (TLE):
1 33464U 08066B   25199.35233250  .00000340  00000-0  11872-2 0  9997
2 33464  25.2824 349.2595 7174764  95.4962 342.6640  2.34173488140531
Source of the keplerian elements: AFSPC